This demonstration page uses our WeatherBlox Daily Observations layout. Learn more.

Hourly Observations for August 10, 2015

Temp ( °F °C ) Dew Point ( °F °C ) Humidity (%) Winds ( mph kmh ) Pressure ( in mb ) Visibility ( mi km ) Precip ( " mm )
12:15 am 00:15 Clear 73 22.5 70 20.9 91 91 Calm 29.94 1014 10 16.0934 0 0
12:35 am 00:35 Clear 72 22.3 70 21 92 92 ENE 9 15 29.94 1014 7 11.26538 0 0
12:55 am 00:55 Clear 72 22.1 68 20 88 88 E 8 13 29.94 1014 10 16.0934 0 0
1:15 am 01:15 Clear 71 21.5 67 19.4 88 88 NE 6 9 29.94 1014 10 16.0934 0 0
1:35 am 01:35 Clear 69 20.8 66 19.1 90 90 Calm 29.94 1014 10 16.0934 0 0
1:55 am 01:55 Clear 69 20.5 67 19.2 92 92 Calm 29.94 1014 10 16.0934 0 0
2:15 am 02:15 Clear 69 20.5 66 18.8 90 90 Calm 29.94 1014 10 16.0934 0 0
2:35 am 02:35 Clear 68 20.1 66 18.7 92 92 Calm 29.94 1014 10 16.0934 0 0
2:55 am 02:55 Clear 68 20 65 18.6 92 92 Calm 29.94 1014 10 16.0934 0 0
3:15 am 03:15 Clear 67 19.6 65 18.2 92 92 Calm 29.94 1014 10 16.0934 0 0
3:35 am 03:35 Clear 67 19.7 65 18.3 92 92 N 5 7 29.94 1014 10 16.0934 0 0
3:55 am 03:55 Clear 67 19.6 65 18.1 91 91 N 5 7 29.94 1014 10 16.0934 0 0
4:15 am 04:15 Clear 67 19.5 64 18 91 91 NNW 3 6 29.94 1014 10 16.0934 0 0
4:35 am 04:35 Partly Cloudy 67 19.5 64 18 91 91 N 9 15 30 1016 10 16.0934 0 0
4:55 am 04:55 Mostly Cloudy 68 20 65 18.1 89 89 N 9 15 30 1016 10 16.0934 0 0
5:15 am 05:15 Partly Cloudy 67 19.5 64 18 91 91 N 6 9 30 1016 10 16.0934 0 0
5:35 am 05:35 Clear 67 19.5 64 17.6 89 89 NNW 3 6 30 1016 10 16.0934 0 0
5:55 am 05:55 Clear 66 19 63 17.3 90 90 NNW 3 6 30 1016 10 16.0934 0 0
6:15 am 06:15 Clear 66 18.7 60 15.8 83 83 Calm 30 1016 10 16.0934 0 0
6:35 am 06:35 Clear 65 18.4 59 15.1 81 81 NW 3 6 30 1016 10 16.0934 0 0
6:55 am 06:55 Sunny 64 18 59 15.1 83 83 Calm 30.03 1017 10 16.0934 0 0
7:15 am 07:15 Sunny 64 17.6 60 15.5 88 88 N 5 7 30.03 1017 10 16.0934 0 0
7:35 am 07:35 Sunny 64 18 61 16 88 88 N 5 7 30.03 1017 10 16.0934 0 0
7:55 am 07:55 Sunny 65 18.6 62 16.6 88 88 NNE 5 7 30.03 1017 10 16.0934 0 0
8:15 am 08:15 Sunny 66 19.1 63 17 88 88 N 8 13 30.06 1018 10 16.0934 0 0
8:35 am 08:35 Mostly Cloudy 67 19.5 64 17.5 88 88 NNE 9 15 30.06 1018 10 16.0934 0 0
8:55 am 08:55 Cloudy 67 19.5 64 17.9 91 91 NNE 10 17 30.06 1018 10 16.0934 0 0
9:15 am 09:15 Cloudy 67 19.5 64 18 91 91 NNE 9 15 30.06 1018 10 16.0934 0 0
9:35 am 09:35 Cloudy 68 20 65 18.1 89 89 NE 10 17 30.06 1018 10 16.0934 0 0
9:55 am 09:55 Cloudy 70 21.1 65 18.2 84 84 NNE 10 17 30.03 1017 10 16.0934 0 0
10:15 am 10:15 Cloudy 70 21.2 66 18.7 86 86 NE 9 15 30.03 1017 10 16.0934 0 0
10:35 am 10:35 Mostly Cloudy 71 21.5 65 18.2 82 82 NNE 8 13 30.03 1017 10 16.0934 0 0
10:55 am 10:55 Mostly Cloudy 73 22.6 65 18.5 78 78 NE 9 15 30.06 1018 10 16.0934 0 0
11:15 am 11:15 Mostly Cloudy 72 22.4 65 18.1 77 77 NE 12 19 30.06 1018 10 16.0934 0 0
11:35 am 11:35 Mostly Cloudy 73 22.7 65 18.3 76 76 N 10 17 30.06 1018 10 16.0934 0 0
11:55 am 11:55 Partly Cloudy 74 23.3 65 18.2 73 73 NE 12 19 30.06 1018 10 16.0934 0 0
12:15 pm 12:15 Sunny 74 23.4 64 18 72 72 NE 9 15 30.06 1018 10 16.0934 0 0
12:35 pm 12:35 Sunny 75 24 64 17.9 69 69 NNE 8 13 30.06 1018 10 16.0934 0 0
12:55 pm 12:55 Partly Cloudy 75 23.8 64 17.9 70 70 NE 10 17 30.06 1018 10 16.0934 0 0
1:15 pm 13:15 Sunny 76 24.2 65 18.1 69 69 NNE 5 7 30.06 1018 10 16.0934 0 0
1:35 pm 13:35 Partly Cloudy 76 24.5 65 18.1 68 68 NNE 6 9 30.03 1017 10 16.0934 0 0
1:55 pm 13:55 Partly Cloudy 76 24.6 64 17.9 66 66 NNE 8 13 30.03 1017 10 16.0934 0 0
2:15 pm 14:15 Partly Cloudy 77 25 64 17.6 64 64 NNE 6 9 30.03 1017 10 16.0934 0 0
2:35 pm 14:35 Partly Cloudy 77 24.9 65 18.2 66 66 NE 8 13 30.03 1017 10 16.0934 0 0
2:55 pm 14:55 Partly Cloudy 77 25.1 64 18 65 65 NE 10 17 30 1016 10 16.0934 0 0
3:15 pm 15:15 Partly Cloudy 77 25.1 63 17.4 62 62 NNE 8 13 30 1016 10 16.0934 0 0
3:35 pm 15:35 Partly Cloudy 78 25.7 64 17.5 61 61 ENE 9 15 30 1016 10 16.0934 0 0
3:55 pm 15:55 Partly Cloudy 78 25.6 64 17.7 62 62 N 3 6 30 1016 10 16.0934 0 0
4:15 pm 16:15 Partly Cloudy 78 25.6 63 17.2 60 60 NE 7 11 30 1016 10 16.0934 0 0
4:35 pm 16:35 Partly Cloudy 79 26.2 63 17.1 57 57 NNE 6 9 30 1016 10 16.0934 0 0
4:55 pm 16:55 Partly Cloudy 79 26 62 16.8 57 57 NNE 7 11 30 1016 10 16.0934 0 0
5:15 pm 17:15 Sunny 79 26.2 61 16 53 53 NNE 7 11 30 1016 10 16.0934 0 0
5:35 pm 17:35 Sunny 79 26.1 62 16.5 56 56 N 8 13 30 1016 10 16.0934 0 0
5:55 pm 17:55 Sunny 79 26.3 63 17.1 57 57 E 3 6 30 1016 10 16.0934 0 0
6:15 pm 18:15 Partly Cloudy 79 26.3 62 16.7 56 56 Calm 30 1016 10 16.0934 0 0
6:35 pm 18:35 Partly Cloudy 78 25.8 63 17.3 59 59 N 6 9 30 1016 10 16.0934 0 0
6:55 pm 18:55 Sunny 77 25 65 18.5 67 67 N 6 9 30 1016 10 16.0934 0 0
7:15 pm 19:15 Sunny 78 25.5 64 17.6 62 62 NE 6 9 30 1016 10 16.0934 0 0
7:35 pm 19:35 Sunny 77 25 65 18.6 68 68 ENE 3 6 30 1016 10 16.0934 0 0
7:55 pm 19:55 Sunny 75 24 65 18.6 72 72 ENE 6 9 30.03 1017 10 16.0934 0 0
8:15 pm 20:15 Sunny 74 23.4 65 18.4 74 74 E 6 9 30.03 1017 10 16.0934 0 0
8:35 pm 20:35 Sunny 72 22.4 65 18.3 78 78 E 6 9 30.03 1017 10 16.0934 0 0
8:55 pm 20:55 Clear 71 21.5 65 18.4 83 83 ESE 3 6 30.03 1017 10 16.0934 0 0
9:15 pm 21:15 Clear 69 20.5 64 18 86 86 E 6 9 30.03 1017 10 16.0934 0 0
9:35 pm 21:35 Clear 68 20.1 64 17.7 86 86 Calm 30.06 1018 10 16.0934 0 0
9:55 pm 21:55 Clear 69 20.5 64 18 86 86 ESE 3 6 30.06 1018 10 16.0934 0 0
10:15 pm 22:15 Clear 67 19.6 64 17.8 89 89 SSE 3 6 30.09 1019 10 16.0934 0 0
10:35 pm 22:35 Clear 67 19.2 63 17.1 88 88 SE 3 6 30.09 1019 10 16.0934 0 0
10:55 pm 22:55 Clear 66 18.9 63 17 89 89 SE 5 7 30.12 1020 10 16.0934 0 0
11:15 pm 23:15 Clear 65 18.5 63 17 91 91 ESE 5 7 30.12 1020 10 16.0934 0 0
11:35 pm 23:35 Clear 64 18 62 16.5 91 91 ESE 6 9 30.12 1020 10 16.0934 0 0
11:55 pm 23:55 Clear 65 18.1 62 16.4 90 90 ESE 5 7 30.12 1020 10 16.0934 0 0

Powered by AerisWeather